FW8240 Weather Reports


Display with metric or nautical units.
time (UTC)temp
F
wind
direction
speed
MPH
gust
MPH
rain 1hr
in
rain 24hr
in
rain mn
in
humidity
%
barometer
mb
20260504050535 65 1 1.0 3.0 0.07 0.82 0.82 92 1030.2
20260504045534 65 4 2.0 3.0 0.07 0.81 0.81 92 1029.9
20260504045035 65 347 1.0 2.0 0.08 0.81 0.81 92 1029.8
20260504044533 65 358 0.0 2.0 0.07 0.80 0.80 92 1029.7
20260504044035 65 358 0.0 2.0 0.07 0.79 0.79 92 1029.5
20260504043535 65 353 1.0 2.0 0.08 0.79 0.79 92 1029.4
20260504043039 65 23 1.0 2.0 0.07 0.78 0.78 92 1029.4
20260504042533 65 349 1.0 2.0 0.08 0.78 0.78 92 1029.5
20260504042033 65 348 1.0 4.0 0.08 0.77 0.77 92 1029.7
20260504041532 65 328 2.0 4.0 0.07 0.76 0.76 92 1029.7
20260504041032 65 360 2.0 4.0 0.08 0.76 0.76 92 1029.7
20260504040532 65 18 0.0 2.0 0.08 0.75 0.75 92 1029.7
20260504040031 65 37 0.0 3.0 0.07 0.74 0.74 92 1029.7
20260504035531 65 342 1.0 3.0 0.08 0.74 0.74 92 1029.6
20260504035031 65 42 0.0 0.0 0.08 0.73 0.73 92 1029.5
20260504034530 65 42 0.0 1.0 0.09 0.73 0.73 92 1029.5
20260504034030 65 42 0.0 1.0 0.09 0.72 0.72 92 1029.5
20260504033530 65 42 0.0 2.0 0.09 0.71 0.71 92 1029.4
20260504033030 65 38 0.0 2.0 0.09 0.71 0.71 92 1029.4
20260504032532 65 11 1.0 2.0 0.09 0.70 0.70 92 1029.4
20260504032029 65 28 1.0 2.0 0.09 0.69 0.69 92 1029.5
20260504031532 66 28 0.0 1.0 0.10 0.69 0.69 91 1029.6
20260504031028 66 28 0.0 1.0 0.10 0.68 0.68 91 1029.6
20260504030528 66 28 0.0 2.0 0.10 0.67 0.67 91 1029.6
20260504030028 66 28 1.0 3.0 0.11 0.67 0.67 91 1029.7
20260504025527 66 19 1.0 3.0 0.11 0.66 0.66 91 1029.8
20260504025028 66 34 1.0 2.0 0.11 0.65 0.65 91 1029.7
20260504024533 66 63 0.0 2.0 0.11 0.64 0.64 91 1029.7
20260504024027 66 101 0.0 2.0 0.11 0.63 0.63 91 1029.6
20260504023527 67 53 0.0 3.0 0.11 0.62 0.62 91 1029.5
20260504023027 67 13 0.0 3.0 0.12 0.62 0.62 91 1029.5
20260504022527 67 128 0.0 2.0 0.12 0.61 0.61 91 1029.5
20260504022026 67 52 0.0 3.0 0.12 0.60 0.60 91 1029.7
20260504021526 67 325 1.0 3.0 0.12 0.59 0.59 91 1029.5
20260504021027 67 146 1.0 3.0 0.11 0.57 0.57 92 1029.5
20260504020526 67 1 1.0 3.0 0.11 0.56 0.56 92 1029.5
20260504020028 67 339 0.0 3.0 0.11 0.56 0.56 92 1029.3
20260504015526 67 334 1.0 2.0 0.11 0.55 0.55 92 1029.4
20260504015029 67 347 1.0 2.0 0.11 0.54 0.54 92 1029.4
20260504014536 67 317 1.0 2.0 0.10 0.53 0.53 92 1029.3
20260504014025 67 91 0.0 3.0 0.10 0.52 0.52 92 1029.3
20260504013524 68 360 1.0 3.0 0.10 0.51 0.51 92 1029.2
20260504013035 68 133 0.0 1.0 0.10 0.50 0.50 92 1029.1
20260504012524 67 133 0.0 2.0 0.09 0.49 0.49 92 1028.9
20260504012025 68 133 0.0 2.0 0.09 0.48 0.48 92 1028.9
20260504011525 68 162 0.0 2.0 0.08 0.47 0.47 92 1028.9
20260504011026 68 164 0.0 2.0 0.09 0.47 0.47 92 1029.0
20260504010524 68 164 0.0 1.0 0.08 0.46 0.46 91 1029.2
20260504010024 68 164 0.0 1.0 0.07 0.45 0.45 92 1029.5
20260504005524 68 164 0.0 1.0 0.06 0.44 0.44 91 1029.8
20260504005024 68 164 0.0 2.0 0.06 0.43 0.43 91 1030.0
20260504004531 69 167 0.0 3.0 0.06 0.43 0.43 91 1030.0
20260504004025 69 40 1.0 5.0 0.05 0.42 0.42 90 1029.9
20260504003523 69 323 1.0 3.0 0.04 0.41 0.41 90 1030.3
20260504003022 70 168 1.0 3.0 0.04 0.40 0.40 91 1030.1
20260504002522 70 203 0.0 4.0 0.04 0.40 0.40 90 1030.4
20260504002022 71 323 1.0 6.0 0.03 0.39 0.39 91 1030.2
20260504001522 71 165 1.0 4.0 0.03 0.39 0.39 91 1030.2
20260504001021 71 347 1.0 3.0 0.03 0.38 0.38 91 1029.9
20260504000522 71 341 0.0 4.0 0.03 0.38 0.38 91 1029.3
20260504000021 71 12 1.0 4.0 0.03 0.38 0.38 91 1028.8
20260503235524 71 142 0.0 1.0 0.03 0.37 0.37 91 1028.5
20260503235021 71 117 0.0 0.0 0.03 0.37 0.37 91 1028.1
20260503234522 72 117 0.0 0.0 0.03 0.37 0.37 92 1027.7
20260503234024 72 117 0.0 1.0 0.04 0.37 0.37 92 1027.6
20260503233522 72 117 0.0 2.0 0.04 0.37 0.37 92 1027.4
20260503233022 72 122 0.0 2.0 0.04 0.36 0.36 91 1027.3
20260503232519 72 105 0.0 1.0 0.04 0.36 0.36 91 1027.2
20260503232021 72 44 0.0 1.0 0.04 0.36 0.36 91 1027.1
20260503231520 72 44 0.0 1.0 0.05 0.36 0.36 91 1027.2
20260503231019 72 360 0.0 1.0 0.04 0.35 0.35 91 1027.2
20260503230520 72 360 0.0 1.0 0.05 0.35 0.35 91 1027.5
20260503230017 72 360 0.0 1.0 0.05 0.35 0.35 91 1027.7
20260503225517 72 360 0.0 2.0 0.05 0.34 0.34 90 1027.7
20260503225018 72 359 1.0 2.0 0.05 0.34 0.34 90 1027.7
20260503224517 72 285 0.0 2.0 0.06 0.34 0.34 89 1027.9
20260503224019 72 276 0.0 2.0 0.05 0.33 0.33 89 1027.8
20260503223516 73 184 0.0 2.0 0.06 0.33 0.33 89 1027.9
20260503223017 73 40 1.0 9.0 0.05 0.32 0.32 89 1027.9
20260503222515 73 49 4.0 9.0 0.06 0.32 0.32 89 1028.0
20260503222016 73 165 0.0 2.0 0.06 0.32 0.32 91 1027.9
20260503221516 74 15 0.0 2.0 0.05 0.31 0.31 90 1027.5
20260503221020 74 6 1.0 2.0 0.06 0.31 0.31 90 1027.5
20260503220518 74 7 1.0 3.0 0.05 0.30 0.30 90 1027.6
20260503220016 74 6 1.0 3.0 0.06 0.30 0.30 90 1027.6
20260503215515 75 14 1.0 3.0 0.05 0.28 0.28 89 1027.7
20260503215016 75 1 0.0 2.0 0.06 0.28 0.28 88 1027.7
20260503214518 75 1 0.0 2.0 0.06 0.28 0.28 88 1027.5
20260503214015 76 359 0.0 2.0 0.06 0.28 0.28 88 1027.7
20260503213515 76 319 0.0 1.0 0.06 0.27 0.27 88 1027.8
20260503213015 76 319 0.0 2.0 0.07 0.27 0.27 87 1027.8
20260503212515 76 189 0.0 2.0 0.07 0.26 0.26 87 1027.9
20260503212015 77 190 1.0 2.0 0.08 0.26 0.26 87 1027.7
20260503211514 77 190 0.0 0.0 0.09 0.26 0.26 87 1027.4
20260503211014 77 190 0.0 0.0 0.09 0.25 0.25 86 1027.4
20260503210515 77 190 0.0 1.0 0.10 0.25 0.25 85 1027.4
20260503210013 77 190 0.0 2.0 0.10 0.24 0.24 86 1027.5
20260503205512 77 179 0.0 2.0 0.11 0.24 0.24 83 1027.8
20260503205011 77 182 0.0 1.0 0.11 0.23 0.23 85 1027.9
20260503204511 76 110 0.0 2.0 0.11 0.22 0.22 86 1027.9
20260503204010 76 147 0.0 2.0 0.12 0.22 0.22 88 1027.8
20260503203514 75 9 0.0 0.0 0.12 0.21 0.21 91 1027.9
20260503203027 75 9 0.0 1.0 0.12 0.20 0.20 92 1028.0
20260503202509 74 9 0.0 1.0 0.12 0.19 0.19 92 1028.2
20260503202010 74 168 0.0 0.0 0.12 0.18 0.18 93 1028.2
20260503201510 73 168 0.0 0.0 0.12 0.17 0.17 92 1028.2
20260503201009 73 168 0.0 1.0 0.12 0.16 0.16 93 1028.4
20260503200508 73 168 0.0 2.0 0.11 0.15 0.15 93 1028.7
20260503200012 72 224 0.0 1.0 0.11 0.14 0.14 92 1028.6
20260503195509 72 341 0.0 0.0 0.10 0.13 0.13 92 1028.8
20260503195008 71 341 0.0 1.0 0.09 0.12 0.12 91 1029.0
20260503194512 71 341 0.0 2.0 0.09 0.11 0.11 90 1029.0
20260503194008 72 330 1.0 2.0 0.08 0.10 0.10 90 1029.1
20260503193508 72 197 0.0 1.0 0.08 0.09 0.09 89 1029.3
20260503193007 72 198 0.0 1.0 0.07 0.08 0.08 89 1029.4
20260503192506 73 184 0.0 1.0 0.06 0.07 0.07 89 1029.5
20260503192006 73 185 0.0 2.0 0.06 0.06 0.06 89 1029.4
20260503191506 73 161 0.0 1.0 0.05 0.05 0.05 91 1029.5
20260503191006 73 14 0.0 0.0 0.04 0.04 0.04 90 1029.4
20260503190505 73 14 0.0 2.0 0.04 0.04 0.04 90 1029.3
20260503190006 73 14 0.0 2.0 0.03 0.03 0.03 90 1029.3
20260503185508 73 49 0.0 0.0 0.03 0.03 0.03 90 1029.3
20260503185005 73 46 0.0 1.0 0.03 0.03 0.03 89 1029.4
20260503184505 74 46 0.0 1.0 0.02 0.02 0.02 89 1029.5
20260503184005 74 46 0.0 1.0 0.02 0.02 0.02 89 1029.5
20260503183504 74 46 0.0 2.0 0.01 0.01 0.01 87 1029.5
20260503183004 75 3 1.0 2.0 0.01 0.01 0.01 86 1029.5
20260503182505 76 152 0.0 1.0 0.01 0.01 0.01 86 1029.6
20260503182006 77 21 0.0 3.0 0.00 0.00 0.00 84 1029.6
20260503181505 78 17 1.0 3.0 0.00 0.00 0.00 81 1029.6
20260503181004 80 128 0.0 6.0 0.00 0.00 0.00 80 1029.5
20260503180504 80 17 1.0 6.0 0.00 0.00 0.00 75 1029.6
20260503180004 81 28 1.0 5.0 0.00 0.00 0.00 76 1029.6
20260503175504 81 11 1.0 5.0 0.00 0.00 0.00 74 1029.6
20260503175003 80 266 1.0 7.0 0.00 0.00 0.00 74 1029.7
20260503174503 80 112 2.0 4.0 0.00 0.00 0.00 74 1029.7
20260503174002 80 68 1.0 4.0 0.00 0.00 0.00 75 1029.7
20260503173503 80 283 0.0 4.0 0.00 0.00 0.00 75 1029.9
20260503173002 80 96 2.0 4.0 0.00 0.00 0.00 74 1029.9
20260503172503 80 14 0.0 5.0 0.00 0.00 0.00 74 1029.9
20260503172001 80 106 1.0 5.0 0.00 0.00 0.00 72 1029.9
20260503171605 80 141 0.0 4.0 0.00 0.00 0.00 76 1029.9
20260503171100 80 262 0.0 4.0 0.00 0.00 0.00 74 1029.9
20260503170558 80 63 0.0 3.0 0.00 0.00 0.00 76 1029.9
20260503150530 72 1 0.0 2.0 0.00 0.00 0.00 89 1030.3
20260503131009 67 13 1.0 2.0 0.00 0.00 0.00 92 1029.6
20260503130513 67 13 1.0 3.0 0.00 0.00 0.00 92 1029.5
20260503110557 66 1 2.0 3.0 0.00 0.00 0.00 91 1029.0
20260503100108 66 15 0.0 2.0 0.00 0.00 0.00 91 1028.2
20260503081556 66 1 1.0 3.0 0.00 0.00 0.00 91 1028.4
20260503081048 66 4 1.0 3.0 0.00 0.00 0.00 91 1028.4
20260503080547 66 11 1.0 2.0 0.00 0.00 0.00 91 1028.5
20260503072544 66 6 1.0 2.0 0.00 0.00 0.00 91 1028.8
20260503072044 66 360 0.0 2.0 0.00 0.00 0.00 91 1028.6
20260503071543 66 360 0.0 2.0 0.00 0.00 0.00 91 1028.8
20260503071042 66 360 1.0 2.0 0.00 0.00 0.00 91 1028.8
20260503070546 67 360 0.0 2.0 0.00 0.00 0.00 91 1028.9